Location: New Frontier Mobile Home Park
(32.8448°N, 116.9675°W)
Time: 23:10:35
(UTC+00:00)

DELTA 2 R/B (1) - Pass Details

Date: 14 July 2020
Orbit: 791 x 802 km, 39.6° (Epoch: 05 August)

Event Time Altitude Azimuth Distance (km) Brightness Sun altitude
Rises 06:11:20 0° 294° (WNW) 3,286 7.5 -30.3°
Reaches altitude 10° 06:13:51 10° 297° (WNW) 2,357 6.6 -30.6°
Enters shadow 06:18:36 57° 338° (NNW) 926 4.1 -31.0°
